User: anonymous   Login
Location: Unspecified
(0.0000°N, 0.0000°E)
Time: 22:51:32
(UTC+01:00)
Language:

Ariane H10 - Orbit

View from above orbital plane
View from above orbital plane
View from above satellite
View from above satellite

Ground track
Ground track

The orbit data is extracted from the following two-line orbital elements,

1 19122U 88040B   14331.49452513  .00001485  00000-0  75250-2 0   653
2 19122 006.9447 190.3108 7153415 115.5187 071.6197 02.32460804175174
Epoch (UTC): 27 November 2014 11:52:06
Eccentricity: 0.7153415
inclination: 6.9447°
perigee height: 474 km
apogee height: 34912 km
right ascension of ascending node: 190.3108°
argument of perigee: 115.5187°
revolutions per day: 2.32460804
mean anomaly at epoch: 71.6197°
orbit number at epoch: 17517

The dashed part of the orbit path shows where the satellite is in the earth's shadow,  

DLR